SPACEBEE-11 (46307 NORAD) Tracking and Keplerian Element Data

This shows tracking and keplerian element data for the satellite.

Feedback or suggestion? Click here.




ElementValue
Catalog46307
NameSPACEBEE-11
Epoch Orbit1376
Epoch Day338.94132285
Epoch Year2020
RAAN50.4307
Inclination97.5111
Eccentricity0.0001113
Argument of Perigee76.257
Mean Anonmoly283.8783
Mean Motion15.11125718
Decay Rate5.285E-05
L11 46307U 20061AM 20338.94132285 .00005285 00000-0 31913-3 0 9999
L22 46307 97.5111 50.4307 0001113 76.2570 283.8783 15.11125718 13766

Live tracking and technical data element details for SPACEBEE-11 (NORAD 46307). SPACEBEE-11 can be tracked NOW for your location showing map with azimuth and elevation plus other details from your city location.

Track the satellite on the map from your city or location and see movement details for azimuth, elevation, latitude, longitude, range, height, and movement on the map or in text.







IsCatalogInMostPopularTable: catalog: 46307, numindb: 18
Update: records affected: 1



GetName: 46307 SPACEBEE-11

Hit Count: updated at: Sat, 05 Dec 2020 04:57:50 GMT